Regional Weather Roundup
Issued by NWS

Home | Current Version | Previous Version | Graphics & Text | Print | Product List | Glossary Off
Versions: 1 2 3 4 5 6 7 8 9 10 11 12 13 14 15 16 17 18 19 20 21 22 23 24 25 26 27 28 29 30 31 32 33 34 35 36 37 38 39 40 41 42 43 44 45 46 47 48 49 50

130
ASUS43 KFSD 281902
RWRSD

WEATHER ROUNDUP FOR SOUTH DAKOTA
NATIONAL WEATHER SERVICE SIOUX FALLS SD
200 PM CDT SAT MAY 28 2016

NOTE: "FAIR" INDICATES FEW OR NO CLOUDS BELOW 12,000 FEET WITH NO
SIGNIFICANT WEATHER AND/OR OBSTRUCTIONS TO VISIBILITY.


SDZ001>005-009-010-012>017-282000-
NORTHWEST AND NORTH CENTRAL SOUTH DAKOTA

CITY           SKY/WX    TMP DP  RH WIND       PRES   REMARKS
BUFFALO          N/A     67  47  48 N10       29.84S
FAITH            N/A     73  45  36 NE7       29.87F
MOBRIDGE       CLOUDY    74  50  42 NW7       29.83F
$$

SDZ012>016-024>037-041>051-057-063-072>074-282000-
SOUTHWEST AND SOUTH CENTRAL SOUTH DAKOTA

CITY           SKY/WX    TMP DP  RH WIND       PRES   REMARKS
RAPID CTY ARPT LGT RAIN  57  53  86 W9        29.95R FOG
PIERRE         CLOUDY    72  54  53 N12       29.84S
CUSTER         CLOUDY    53  43  68 E14       30.00R
ELLSWORTH AFB  LGT RAIN  56  53  89 S7        29.92F
PHILIP         CLOUDY    72  51  47 NW7       29.87F
PINE RIDGE     SUNNY     72  42  34 W5        29.91F
WINNER         FAIR      68  55  63 NW10      29.86S
$$

SDZ004>011-016>023-039-040-282000-
NORTHEAST SOUTH DAKOTA

CITY           SKY/WX    TMP DP  RH WIND       PRES   REMARKS
ABERDEEN       LGT RAIN  66  59  78 N5        29.83S
WATERTOWN      CLOUDY    63  56  78 NE9       29.81S
BROOKINGS      LGT RAIN  61  59  93 NE8       29.79F
SISSETON         N/A     69  52  54 NE6       29.79F
$$

SDZ017-020-022-023-036>040-048>070-282000-
SOUTHEAST SOUTH DAKOTA

CITY           SKY/WX    TMP DP  RH WIND       PRES   REMARKS
SIOUX FALLS    PTSUNNY   69  60  73 NE14G20   29.76S
HURON          LGT RAIN  62  60  93 N7        29.81R
MITCHELL       LGT RAIN  64  60  87 NW9       29.81R
YANKTON        CLOUDY    66  57  72 NW20G25   29.75R
$$

ABBREVIATIONS USED IN REMARKS
   TC - TEMPERATURE IN CELSIUS
  WCI - WIND CHILL INDEX
   HX - HEAT INDEX
  VSB - VISIBILITY





USA.gov is the U.S. government's official web portal to all federal, state and local government web resources and services.